EW3619 Weather Reports


Display with metric or nautical units.
time (UTC)temp
F
wind
direction
speed
MPH
gust
MPH
rain 1hr
in
rain 24hr
in
rain mn
in
humidity
%
barometer
mb
20260504034549 61 244 1.0 4.0 0.00 0.00 0.00 1 1013.6
20260504033046 62 227 2.0 7.0 0.00 0.00 0.00 1 1013.8
20260504031540 62 196 3.0 7.0 0.00 0.00 0.00 1 1013.4
20260504030036 62 164 3.0 9.0 0.00 0.00 0.00 1 1013.4
20260504024531 62 232 2.0 7.0 0.00 0.00 0.00 1 1013.2
20260504023028 63 284 4.0 8.0 0.00 0.00 0.00 1 1013.3
20260504021522 63 188 3.0 6.0 0.00 0.00 0.00 1 1013.3
20260504020018 63 288 3.0 9.0 0.00 0.00 0.00 1 1013.1
20260504014524 64 287 3.0 8.0 0.00 0.00 0.00 1 1012.9
20260504013012 64 243 4.0 10.0 0.00 0.00 0.00 1 1013.3
20260504011507 64 277 3.0 15.0 0.00 0.00 0.00 1 1012.9
20260504010005 64 223 6.0 13.0 0.00 0.00 0.00 1 1012.5
20260504004601 65 271 3.0 11.0 0.00 0.00 0.00 1 1012.4
20260504003056 66 257 5.0 13.0 0.00 0.00 0.00 1 1012.2
20260504001600 67 193 5.0 13.0 0.00 0.00 0.00 1 1011.9
20260504000049 68 215 6.0 11.0 0.00 0.00 0.00 1 1011.8
20260503234548 69 166 4.0 10.0 0.00 0.00 0.00 1 1011.9
20260503233052 69 263 3.0 9.0 0.00 0.00 0.00 1 1011.7
20260503231543 70 248 3.0 10.0 0.00 0.00 0.00 1 1011.9
20260503230043 68 273 3.0 10.0 0.00 0.00 0.00 1 1012.0
20260503224539 67 294 6.0 10.0 0.00 0.00 0.00 1 1012.2
20260503223030 67 335 2.0 11.0 0.00 0.00 0.00 1 1012.0
20260503221526 68 278 6.0 13.0 0.00 0.00 0.00 1 1012.2
20260503220025 67 33 4.0 9.0 0.00 0.00 0.00 1 1012.5
20260503214526 67 244 5.0 13.0 0.00 0.00 0.00 1 1012.7
20260503213017 67 252 3.0 10.0 0.00 0.00 0.00 1 1012.7
20260503211513 67 330 3.0 11.0 0.00 0.00 0.00 1 1012.7
20260503210024 67 261 4.0 11.0 0.00 0.00 0.00 1 1012.6
20260503204506 68 247 5.0 12.0 0.00 0.00 0.00 1 1012.6
20260503203106 68 273 4.0 11.0 0.00 0.00 0.00 1 1012.7
20260503201555 67 295 5.0 14.0 0.00 0.00 0.00 1 1012.6
20260503200151 67 188 6.0 14.0 0.00 0.00 0.00 1 1013.0
20260503194601 66 266 3.0 16.0 0.00 0.00 0.00 1 1013.2
20260503193042 66 281 8.0 14.0 0.00 0.00 0.00 1 1013.2
20260503191538 66 245 5.0 13.0 0.00 0.00 0.00 1 1013.0
20260503190043 68 243 5.0 13.0 0.00 0.00 0.00 1 1013.0
20260503184531 69 284 2.0 7.0 0.00 0.00 0.00 1 1012.9
20260503183026 69 181 1.0 5.0 0.00 0.00 0.00 1 1012.8
20260503181521 69 207 1.0 6.0 0.00 0.00 0.00 1 1012.9
20260503180017 69 163 1.0 7.0 0.00 0.00 0.00 1 1013.2
20260503174512 68 122 1.0 6.0 0.00 0.00 0.00 1 1013.2
20260503173008 66 182 4.0 8.0 0.00 0.00 0.00 1 1013.2
20260503171503 64 57 1.0 5.0 0.00 0.00 0.00 1 1013.2
20260503100113 57 208 0.0 2.0 0.00 0.00 0.00 1 1011.6
20260503081543 57 214 0.0 2.0 0.00 0.00 0.00 1 1012.3
20260503071515 57 203 0.0 4.0 0.00 0.00 0.00 1 1013.1
20260503054542 57 246 2.0 7.0 0.00 0.00 0.00 1 1012.6
20260503053038 57 244 2.0 5.0 0.00 0.00 0.00 1 1012.7
20260503051533 57 257 1.0 4.0 0.00 0.00 0.00 1 1012.5
20260503050029 57 236 1.0 4.0 0.00 0.00 0.00 1 1012.0
20260503044537 57 213 3.0 8.0 0.00 0.00 0.00 1 1011.5
20260503043020 57 258 4.0 10.0 0.00 0.00 0.00 1 1011.6
20260503041515 57 232 4.0 9.0 0.00 0.00 0.00 1 1011.0
20260503040011 57 261 3.0 6.0 0.00 0.00 0.00 1 1010.9